Location: Écuvilly
(49.6505°N, 2.9206°E)
Time: 18:51:32
(UTC+00:00)

Cosmos 2195 Rocket - Visible Passes

Search period start: 06 February 2026 00:00
Search period end: 16 February 2026 00:00
Orbit: 947 x 993 km, 82.9° (Epoch: 6 February)

Date Brightness Start Highest point End Pass type
(mag) Time Alt. Az. Time Alt. Az. Time Alt. Az.
10 Feb 7.1 06:32:39 10° NE 06:34:32 11° NE 06:36:25 10° ENE visible
14 Feb 7.0 06:21:14 10° NNE 06:24:39 15° ENE 06:28:03 10° E visible
15 Feb 7.2 22:14:13 10° N 22:14:13 10° N 22:14:18 10° N visible
